When you browse on this site, cookies collect data to enhance your experience and personalize the content and advertising you see.
Visit our Privacy Policy to learn more. By continuing to use the site, you agree to this use of cookies and data.
  • en Suisse
  • Liste des pays
  • À 7 jours
  • Température de l'eau
  • Carte météo
  • Widgets météo
  • user-avatar
    Se connecter

    Météo par heure à Kanye

    Ce jour, 10 Avril, Vendredi

    Heure Température Précipitation Vent Pression Humidité
    00:00 +16°C° 0 mm 5 m/s 655 mmHg 69%
    01:00 +16°C° 0 mm 5 m/s 655 mmHg 73%
    02:00 +15°C° 0 mm 5 m/s 655 mmHg 78%
    03:00 +15°C° 0 mm 5 m/s 655 mmHg 80%
    04:00 +14°C° 0 mm 5 m/s 655 mmHg 83%
    05:00 +14°C° 0 mm 6 m/s 655 mmHg 86%
    06:00 +15°C° 0 mm 6 m/s 655 mmHg 84%
    07:00 +15°C° 0 mm 6 m/s 655 mmHg 81%
    08:00 +15°C° 0 mm 6 m/s 656 mmHg 79%
    09:00 +17°C° 0 mm 5 m/s 656 mmHg 72%
    10:00 +20°C° 0 mm 5 m/s 657 mmHg 64%
    11:00 +21°C° 0 mm 5 m/s 657 mmHg 57%
    12:00 +23°C° 0 mm 5 m/s 656 mmHg 51%
    13:00 +25°C° 0 mm 5 m/s 656 mmHg 44%
    14:00 +27°C° 0 mm 5 m/s 655 mmHg 38%
    15:00 +26°C° 0 mm 5 m/s 655 mmHg 37%
    16:00 +26°C° 0 mm 4 m/s 654 mmHg 37%
    17:00 +26°C° 0 mm 3 m/s 654 mmHg 36%
    18:00 +24°C° 0 mm 3 m/s 654 mmHg 41%
    19:00 +22°C° 0 mm 3 m/s 654 mmHg 46%
    20:00 +20°C° 0 mm 3 m/s 654 mmHg 51%
    21:00 +19°C° 0 mm 2 m/s 654 mmHg 52%
    22:00 +19°C° 0 mm 2 m/s 654 mmHg 53%
    23:00 +19°C° 0 mm 2 m/s 654 mmHg 54%

    Demain, 11 Avril, Samedi

    Heure Température Précipitation Vent Pression Humidité
    00:00 +18°C° 0 mm 2 m/s 654 mmHg 56%
    01:00 +18°C° 0 mm 2 m/s 653 mmHg 58%
    02:00 +17°C° 0 mm 2 m/s 653 mmHg 60%
    03:00 +17°C° 0 mm 2 m/s 653 mmHg 63%
    04:00 +16°C° 0 mm 2 m/s 653 mmHg 65%
    05:00 +16°C° 0 mm 3 m/s 653 mmHg 68%
    06:00 +17°C° 0 mm 3 m/s 653 mmHg 66%
    07:00 +17°C° 0 mm 3 m/s 654 mmHg 65%
    08:00 +18°C° 0 mm 4 m/s 654 mmHg 63%
    09:00 +21°C° 0 mm 4 m/s 655 mmHg 54%
    10:00 +23°C° 0 mm 4 m/s 655 mmHg 45%
    11:00 +27°C° 0 mm 4 m/s 656 mmHg 37%
    12:00 +28°C° 0 mm 3 m/s 655 mmHg 33%
    13:00 +29°C° 0 mm 3 m/s 655 mmHg 29%
    14:00 +30°C° 0 mm 2 m/s 654 mmHg 25%
    15:00 +29°C° 0 mm 2 m/s 653 mmHg 25%
    16:00 +29°C° 0 mm 1 m/s 653 mmHg 26%
    17:00 +29°C° 0 mm 1 m/s 653 mmHg 27%
    18:00 +27°C° 0 mm 1 m/s 653 mmHg 30%
    19:00 +25°C° 0 mm 1 m/s 652 mmHg 33%
    20:00 +21°C° 0 mm 0 m/s 652 mmHg 37%
    21:00 +20°C° 0 mm 0 m/s 652 mmHg 40%
    22:00 +21°C° 0 mm 1 m/s 652 mmHg 43%
    23:00 +20°C° 0 mm 1 m/s 652 mmHg 45%

    Après-demain, 12 Avril, Dimanche

    Heure Température Précipitation Vent Pression Humidité
    00:00 +21°C° 0 mm 1 m/s 652 mmHg 43%
    01:00 +21°C° 0 mm 1 m/s 652 mmHg 41%
    02:00 +22°C° 0 mm 1 m/s 652 mmHg 39%
    03:00 +20°C° 0 mm 2 m/s 651 mmHg 41%
    04:00 +19°C° 0 mm 2 m/s 651 mmHg 42%
    05:00 +19°C° 0 mm 2 m/s 651 mmHg 43%
    06:00 +20°C° 0 mm 2 m/s 651 mmHg 42%
    07:00 +21°C° 0 mm 2 m/s 652 mmHg 40%
    08:00 +21°C° 0 mm 2 m/s 652 mmHg 39%
    09:00 +25°C° 0 mm 3 m/s 653 mmHg 34%
    10:00 +28°C° 0 mm 4 m/s 654 mmHg 30%
    11:00 +32°C° 0 mm 4 m/s 654 mmHg 25%
    12:00 +32°C° 0 mm 5 m/s 653 mmHg 25%
    13:00 +32°C° 0 mm 5 m/s 652 mmHg 26%
    14:00 +32°C° 0 mm 5 m/s 651 mmHg 26%
    15:00 +30°C° 0 mm 5 m/s 651 mmHg 27%
    16:00 +30°C° 0 mm 4 m/s 651 mmHg 29%
    17:00 +29°C° 0 mm 4 m/s 651 mmHg 31%
    18:00 +27°C° 0.1 mm 4 m/s 651 mmHg 40%
    19:00 +25°C° 0.1 mm 4 m/s 651 mmHg 49%
    20:00 +22°C° 0.1 mm 5 m/s 651 mmHg 58%
    21:00 +22°C° 0 mm 4 m/s 651 mmHg 57%
    22:00 +22°C° 0 mm 3 m/s 651 mmHg 57%
    23:00 +23°C° 0 mm 2 m/s 651 mmHg 56%

    13 Avril, Lundi

    Heure Température Précipitation Vent Pression Humidité
    00:00 +20°C° 0 mm 3 m/s 651 mmHg 56%
    01:00 +19°C° 0 mm 3 m/s 650 mmHg 57%
    02:00 +18°C° 0 mm 3 m/s 650 mmHg 58%
    03:00 +18°C° 0 mm 3 m/s 650 mmHg 54%
    04:00 +17°C° 0 mm 2 m/s 650 mmHg 50%
    05:00 +17°C° 0 mm 2 m/s 649 mmHg 46%
    06:00 +18°C° 0 mm 2 m/s 650 mmHg 42%
    07:00 +19°C° 0 mm 3 m/s 651 mmHg 38%
    08:00 +20°C° 0 mm 3 m/s 651 mmHg 34%
    09:00 +24°C° 0 mm 3 m/s 652 mmHg 31%
    10:00 +27°C° 0 mm 4 m/s 652 mmHg 28%
    11:00 +30°C° 0 mm 4 m/s 653 mmHg 26%
    12:00 +30°C° 0 mm 4 m/s 652 mmHg 25%
    13:00 +30°C° 0 mm 4 m/s 651 mmHg 24%
    14:00 +30°C° 0 mm 4 m/s 651 mmHg 23%
    15:00 +29°C° 0 mm 4 m/s 650 mmHg 26%
    16:00 +28°C° 0 mm 4 m/s 650 mmHg 29%
    17:00 +27°C° 0 mm 4 m/s 650 mmHg 32%
    18:00 +26°C° 0.2 mm 3 m/s 650 mmHg 38%
    19:00 +24°C° 0.2 mm 2 m/s 649 mmHg 45%
    20:00 +22°C° 0.2 mm 1 m/s 649 mmHg 51%
    21:00 +22°C° 0.3 mm 1 m/s 649 mmHg 54%
    22:00 +21°C° 0.3 mm 1 m/s 649 mmHg 57%
    23:00 +21°C° 0.3 mm 1 m/s 649 mmHg 60%

    14 Avril, Mardi

    Heure Température Précipitation Vent Pression Humidité
    00:00 +21°C° 0 mm 1 m/s 649 mmHg 62%
    01:00 +19°C° 0 mm 2 m/s 649 mmHg 64%
    02:00 +19°C° 0 mm 3 m/s 649 mmHg 66%
    03:00 +18°C° 0.1 mm 3 m/s 648 mmHg 71%
    04:00 +17°C° 0.1 mm 2 m/s 648 mmHg 77%
    05:00 +16°C° 0.1 mm 2 m/s 648 mmHg 82%
    06:00 +17°C° 0.3 mm 3 m/s 649 mmHg 81%
    07:00 +18°C° 0.3 mm 4 m/s 649 mmHg 80%
    08:00 +17°C° 0.3 mm 5 m/s 650 mmHg 78%
    09:00 +20°C° 0.2 mm 5 m/s 650 mmHg 70%
    10:00 +22°C° 0.2 mm 5 m/s 650 mmHg 62%
    11:00 +25°C° 0.2 mm 5 m/s 651 mmHg 53%
    12:00 +27°C° 0 mm 6 m/s 651 mmHg 43%
    13:00 +29°C° 0 mm 6 m/s 651 mmHg 33%
    14:00 +30°C° 0 mm 7 m/s 651 mmHg 23%
    15:00 +30°C° 0 mm 7 m/s 650 mmHg 20%
    16:00 +30°C° 0 mm 7 m/s 650 mmHg 18%
    17:00 +29°C° 0 mm 8 m/s 650 mmHg 15%
    18:00 +27°C° 0 mm 6 m/s 650 mmHg 20%
    19:00 +23°C° 0 mm 5 m/s 650 mmHg 24%
    20:00 +21°C° 0 mm 4 m/s 650 mmHg 29%
    21:00 +20°C° 0 mm 3 m/s 650 mmHg 31%
    22:00 +19°C° 0 mm 3 m/s 651 mmHg 32%
    23:00 +18°C° 0 mm 3 m/s 651 mmHg 33%

    15 Avril, Mercredi

    Heure Température Précipitation Vent Pression Humidité
    00:00 +17°C° 0 mm 3 m/s 651 mmHg 38%
    01:00 +16°C° 0 mm 2 m/s 650 mmHg 42%
    02:00 +15°C° 0 mm 2 m/s 650 mmHg 46%
    03:00 +15°C° 0 mm 2 m/s 650 mmHg 50%
    04:00 +15°C° 0 mm 2 m/s 650 mmHg 54%
    05:00 +15°C° 0 mm 2 m/s 650 mmHg 58%
    06:00 +16°C° 0 mm 2 m/s 651 mmHg 55%
    07:00 +17°C° 0 mm 3 m/s 651 mmHg 53%
    08:00 +18°C° 0 mm 3 m/s 652 mmHg 51%
    09:00 +20°C° 0 mm 4 m/s 653 mmHg 44%
    10:00 +22°C° 0 mm 4 m/s 653 mmHg 38%
    11:00 +26°C° 0 mm 4 m/s 654 mmHg 31%
    12:00 +27°C° 0 mm 3 m/s 653 mmHg 28%
    13:00 +28°C° 0 mm 2 m/s 653 mmHg 24%
    14:00 +29°C° 0 mm 1 m/s 653 mmHg 21%
    15:00 +29°C° 0 mm 1 m/s 652 mmHg 20%
    16:00 +29°C° 0 mm 1 m/s 652 mmHg 19%
    17:00 +29°C° 0 mm 1 m/s 652 mmHg 18%
    18:00 +26°C° 0 mm 1 m/s 651 mmHg 22%
    19:00 +23°C° 0 mm 1 m/s 651 mmHg 27%
    20:00 +21°C° 0 mm 1 m/s 650 mmHg 31%
    21:00 +19°C° 0 mm 2 m/s 651 mmHg 37%
    22:00 +19°C° 0 mm 3 m/s 651 mmHg 42%
    23:00 +19°C° 0 mm 3 m/s 651 mmHg 47%
    Voir plus